Weather History for Avoca, PA

Change the Weather History Date:

Wednesday, May 22, 2013

  Actual Average Record
Temperature  
Mean Temperature 77 °F 60 °F  
Max Temperature 90 °F 71 °F 93 °F (1911)
Min Temperature 63 °F 49 °F 31 °F (2002)
Degree Days  
Heating Degree Days 0 6  
Month to date heating degree days 137 184  
Since 1 July heating degree days 5746 6157  
Cooling Degree Days 12 1  
Month to date cooling degree days 28 15  
Year to date cooling degree days 32 21  
Growing Degree Days 27 (Base 50)    
Moisture  
Dew Point 61 °F    
Average Humidity 63    
Maximum Humidity 93    
Minimum Humidity 32    
Precipitation  
Precipitation 0.25 in 0.12 in 2.67 in (1942)
Month to date precipitation 1.33 2.43  
Year to date precipitation 8.08 12.71  
Sea Level Pressure  
Sea Level Pressure 29.85 in    
Wind  
Wind Speed 8 mph (SW)    
Max Wind Speed 26 mph    
Max Gust Speed 36 mph    
Visibility 9 miles    
Events Rain    
T = Trace of Precipitation, MM = Missing Value Source: NWS Daily Summary

Daily Weather History Graph

Daily Weather History Graph

Search for Another Location

Airport:

Trip Planner

Search our weather history database for the weather conditions in past years. The results will help you decide how hot, cold, wet, or windy it might be!

Date:

Astronomy

May. 22, 2013 Rise Set
Actual Time 5:37 AM EDT 8:21 PM EDT
Civil Twilight 5:05 AM EDT 8:54 PM EDT
Nautical Twilight 4:25 AM EDT 9:34 PM EDT
Astronomical Twilight 3:39 AM EDT 10:21 PM EDT
Moon 5:39 PM EDT (5/22) 3:42 AM EDT (5/22)
Length of Visible Light 15h 48m
Length of Day
14h 43m
Waxing Gibbous, 91% of the Moon is Illuminated
May 22
Waxing Gibbous
May 25
Full
May 31
Last Quarter
Jun 8
New
Jun 16
First Quarter

Hourly Weather History & Observations

Time (EDT) Temp. Heat Index Dew Point Humidity Pressure Visibility Wind Dir Wind Speed Gust Speed Precip Events Conditions
9:54 AM 78.1 °F - 66.9 °F 68% 29.86 in 8.0 mi SW 5.8 mph - N/A   Mostly Cloudy
10:54 AM 80.1 °F 82.1 °F 66.0 °F 62% 29.86 in 8.0 mi WSW 10.4 mph 17.3 mph N/A   Partly Cloudy
11:54 AM 81.0 °F 83.0 °F 66.0 °F 60% 29.84 in 9.0 mi WSW 10.4 mph 18.4 mph N/A   Scattered Clouds
12:54 PM 84.9 °F 85.9 °F 63.0 °F 48% 29.83 in 10.0 mi SW 11.5 mph 19.6 mph N/A   Clear
1:54 PM 88.0 °F 86.7 °F 57.0 °F 35% 29.82 in 10.0 mi WSW 15.0 mph 21.9 mph N/A   Clear
2:54 PM 88.0 °F 86.5 °F 55.9 °F 34% 29.80 in 10.0 mi SSW 11.5 mph 21.9 mph N/A   Clear
3:54 PM 89.1 °F 87.1 °F 55.0 °F 31% 29.78 in 10.0 mi West 16.1 mph 24.2 mph N/A   Clear
4:54 PM 89.1 °F 87.3 °F 55.9 °F 32% 29.77 in 10.0 mi West 13.8 mph 23.0 mph N/A   Clear
5:54 PM 87.1 °F 86.7 °F 60.1 °F 40% 29.76 in 10.0 mi SSW 11.5 mph 20.7 mph N/A   Partly Cloudy
6:54 PM 84.9 °F 83.9 °F 57.0 °F 38% 29.77 in 10.0 mi SSW 9.2 mph 26.5 mph N/A   Partly Cloudy
7:54 PM 82.9 °F 83.2 °F 60.1 °F 46% 29.78 in 10.0 mi South 10.4 mph 24.2 mph N/A   Clear
8:54 PM 81.0 °F 83.0 °F 66.0 °F 60% 29.80 in 9.0 mi South 13.8 mph 25.3 mph N/A   Clear
9:41 PM 73.4 °F - 59.0 °F 61% 29.94 in 10.0 mi West 25.3 mph 35.7 mph 0.00 in Rain Light Rain
9:54 PM 66.9 °F - 62.1 °F 84% 29.93 in 2.5 mi WSW 15.0 mph 31.1 mph 0.07 in Rain Heavy Rain
10:11 PM 64.4 °F - 62.6 °F 94% 29.96 in 5.0 mi Calm Calm - 0.10 in Rain Rain
10:22 PM 64.4 °F - 62.6 °F 94% 29.95 in 2.5 mi Variable 3.5 mph - 0.16 in Rain Light Rain
10:30 PM 64.4 °F - 62.6 °F 94% 29.94 in 9.0 mi Calm Calm - 0.16 in Rain Light Rain
10:54 PM 64.9 °F - 63.0 °F 93% 29.91 in 9.0 mi Calm Calm - 0.16 in Rain Light Rain
11:54 PM 64.0 °F - 62.1 °F 93% 29.85 in 10.0 mi East 4.6 mph - 0.02 in   Partly Cloudy